Regional Weather Roundup
Issued by NWS

Home | Current Version | Previous Version | Text Only | Print | Product List | Glossary Off
Versions: 1 2 3 4 5 6 7 8 9 10 11 12 13 14 15 16 17 18 19 20 21 22 23 24 25 26 27 28 29 30 31 32 33 34 35 36 37 38 39 40 41 42 43 44 45 46 47 48 49 50

000
ASUS43 KTOP 071859
RWRKS

WEATHER ROUNDUP FOR KANSAS
NATIONAL WEATHER SERVICE GOODLAND KS
200 PM CDT TUE JUL 07 2015

NOTE:  "FAIR" INDICATES FEW OR NO CLOUDS BELOW 12,000 FEET WITH NO
SIGNIFICANT WEATHER AND/OR OBSTRUCTIONS TO VISIBILITY.

KSZ001>006-013>018-027>032-041>047-072000-
NORTHWEST KANSAS

CITY           SKY/WX    TMP DP  RH WIND       PRES   REMARKS
GOODLAND       MOSUNNY   73  44  35 SE9       30.18F
HAYS           SUNNY     75  48  38 NE16G23   30.13F
HILL CITY      MOSUNNY   79  48  33 E16G22    30.15F HAZE
RUSSELL        SUNNY     75  50  41 NE15G23   30.12F
$$

KSZ061>065-074>080-084>089-072000-
SOUTHWEST KANSAS

CITY           SKY/WX    TMP DP  RH WIND       PRES   REMARKS
DODGE CITY     MOSUNNY   74  44  34 E21G26    30.13F
ELKHART          N/A     76  50  40 NE13        N/A
GARDEN CITY    SUNNY     74  44  34 E20       30.14F
GREAT BEND     MOSUNNY   73  48  40 NE16G22   30.13F
LIBERAL        MOSUNNY   72  55  56 E13       30.16F
$$

KSZ066>073-081>083-090>101-072000-
SOUTHEAST KANSAS

CITY           SKY/WX    TMP DP  RH WIND       PRES   REMARKS
CHANUTE        CLOUDY    67  64  90 NE10      30.05S FOG
COFFEYVILLE    CLOUDY    67  63  87 N12       30.03S FOG
HUTCHINSON     CLOUDY    68  54  60 VRB3      30.11F
MEDICINE LODGE   N/A     67  58  72 NE13      30.10S
NEWTON         CLOUDY    68  48  49 NE16      30.12S
PARSONS        CLOUDY    67  63  87 NE8       30.05R
WICHITA INTL   CLOUDY    70  57  63 N14       30.08F
WICHITA JABRA  PTSUNNY   71  59  65 N14       30.07F
WINFIELD       CLOUDY    67  64  90 NE10      30.07S FOG
$$

KSZ007>012-019>026-033>040-048>060-102>105-072000-
NORTHEAST KANSAS

CITY           SKY/WX    TMP DP  RH WIND       PRES   REMARKS
CONCORDIA      MOSUNNY   72  53  51 NE13      30.13F
EMPORIA        CLOUDY    71  57  61 N13       30.07F
LAWRENCE       CLOUDY    72  59  63 N13       30.07F
MANHATTAN      PTSUNNY   72  50  45 NE12G22   30.10F
OLATHE IND     CLOUDY    72  61  68 N14       30.07S HAZE
OLATHE EXE     CLOUDY    72  59  63 N12       30.05F HAZE
SALINA         PTSUNNY   76  49  38 NE16G25   30.11F
TOPEKA BILLARD CLOUDY    69  58  67 N12       30.08F
TOPEKA FORBES  CLOUDY    71  58  63 N13       30.08F
$$


USA.gov is the U.S. government's official web portal to all federal, state and local government web resources and services.